Find Starlink 35033

NORAD ID: 65468 Int'l Des: 2025-195 Owner: SPXS Country: US Constellation: starlink operational
LEOCIRCULAR

Live Position

Loading 3D Globe...

About Starlink 35033

Description loading...

Upcoming Passes

Passes for default location (London). Set your location on the main map for personalized predictions.

Altitude History

Loading altitude history...

Two-Line Element Set

1 65468U 25195L 26106.21723357 .00005757 00000-0 20637-3 0 9991
2 65468 53.1577 83.5568 0001156 87.8185 272.2948 15.30196707 35746
Epoch: Apr 16, 2026 • Age: 31 hours

Current Status

Altitude 475.8 km
Velocity 7.63 km/s
Sub-Earth Point 24.87°N, 61.48°E
Launch Date Sep 3, 2025
Age 0.6 years
Type internet

Technical Details

Classification Payload
Mass 575.00 kg
Dry Mass 530.00 kg
Total Mass 575.00 kg
Length 0.30 m
Diameter 4.10 m
Span 29.00 m
Shape Box + pan
Manufacturer SPXS
Bus Type Starlink V2MO
Phase Status In Orbit
Owner/State SPXS/US

Most Searched